Hourly Data Report for November 30, 2019

CARBERRY CS
MANITOBA
Current Station Operator: ECCC - MSC

49°54'20.900" N
99°21'26.800" W
383.50 m
5010547
71170
WZE

Download Data

Hourly Data (November 2019)
Hourly Data Report for November 30, 2019
TIME
LST
Temp Definition
°C
Dew Point Definition
°C
Rel Hum Definition
%
Precip. Amount Definition
mm

Wind Dir Definition
10's deg

Wind Spd Definition
km/h
Visibility Definition
km
Stn Press Definition
kPa
Hmdx Definition


Wind Chill Definition


Weather Definition


00:00 -3.9 -3.9 100 0.0 7 14   97.35   -9 LegendNANA
01:00 -3.8 -3.9 100 0.0 6 13   97.30   -9 LegendNANA
02:00 -3.8 -3.8 100 0.0 5 11   97.30   -8 LegendNANA
03:00 -3.6 -3.7 100 0.0 5 12   97.28   -8 LegendNANA
04:00 -3.4 -3.5 100 0.0 4 14   97.25   -8 LegendNANA
05:00 -3.2 -3.2 100 0.0 3 16   97.21   -9 LegendNANA
06:00 -3.4 -3.4 100 0.0 4 16   97.17   -9 LegendNANA
07:00 -3.6 -3.7 100 0.0 4 15   97.17   -9 LegendNANA
08:00 -3.8 -4.0 99 0.0 3 15   97.14   -9 LegendNANA
09:00 -3.9 -4.4 97 0.0 2 15   97.14   -9 LegendNANA
10:00 -3.8 -4.4 96 0.0 3 16   97.14   -9 LegendNANA
11:00 -3.9 -4.4 96 0.0 2 16   97.15   -9 LegendNANA
12:00 -4.2 -5.2 93 0.0 2 16   97.11   -10 LegendNANA
13:00 -4.2 -5.0 94 0.0 2 18   97.09   -10 LegendNANA
14:00 -4.5 -4.6 100 0.0 1 19   97.07   -11 LegendNANA
15:00 -4.6 -4.6 100 0.0 1 22   97.07   -11 LegendNANA
16:00 -4.7 -4.7 100 0.0 2 18   97.15   -11 LegendNANA
17:00 -4.9 -4.9 100 0.0 1 22   97.16   -12 LegendNANA
18:00 -5.2 -5.2 100 0.0 1 23   97.18   -12 LegendNANA
19:00 -5.5 -5.6 100 0.0 2 27   97.18   -13 LegendNANA
20:00 -5.8 -5.9 100 0.0 1 22   97.22   -13 LegendNANA
21:00 -6.0 -6.1 100 0.0 1 21   97.24   -13 LegendNANA
22:00 -6.5 -6.5 100 0.0 1 21   97.21   -14 LegendNANA
23:00 -6.6 -6.6 100 0.0 2 18   97.21   -13 LegendNANA

Notes on Data Quality.

Legend

  • E = Estimated
  • M = Missing
  • NA = Not Available*
  • [empty] = Indicates an unobserved value
Date modified: